Probability
0 0 0 0 0 0 0 3 0 0 0 0 0 0 0 0 0 0 0 0 0 0 0 0 0 0 0 0 0 0 0 0 0 0 0 0 3 6
0 0 0 0 0 0 3 6 3 0 0 0 0 0 0 0 0 0 0 0 0 0 0 0 0 0 0 0 0 0 0 0 0 0 0 0 0 0
0 0 0 0 0 0 0 0 0 0 0 0 0 0 0 0 0 0 0 0 0 0 0 0 0 0 0 0 0 0 0 0 0 0 0 0 0 0
0 0 0 0 0 0 0 0 0 0 0 3 0 0 0 0 0 0 0 0 0 0 0 0 0 0 0 0 0 0 0 0 0 0 0 0 0 0
0 0 0 0 0 0 0 0 0 0 0 0 0 0 0 0 0 0 0 0 0 0 0 0 0 0 0 0 0 0 0 0 0 0 0 0 0 0
0 0 0 0 0 0 0 0 0 0 0 0 0 0 0 0 0 0 0 0 0 0 0 0 0 0 0 0 0 0 0 0 0 0 0 0 0 0
0 0 0 0 0 0 0 0 0 3 0 0 0 0 0 0 0 0 0 0 0 0 0 0 0 0 0 0 0 0 0 0 0 0 0 0 0 0
0 0 0 0 0 0 0 0 0 0 0 0 0 0 0 0 0 0 0 0 0 0 0 0 0 0 0 0 0 0 0 0 0 0 0 0 0 0
0 0 0 0 0 0 0 0 0 0 0 0 0 0 0 0 0 0 0 0 0 0 0 0 0 0 0 0 0 0 0 0 0 0 0 0 0 0
3 3 0 0 0 0 0 0 0 0 0 0 0 0 0 0 0 0 0 0 0 0 0 0 0 0 0 0 0 0 0 0 0 0 0 0 0 0
0 0 0 0 0 0 0 0 0 0 0 0 0 0 0 0 0 0 0 0 0 0 0 0 0 0 0 0 0 0 0 0 0 0 0 0 0 0
0 0 0 0 0 0 0 0 0 0 0 0 0 0 0 0 0 0 0 0 0 0 0 0 0 0 0 0 0 0 0 0 0 0 0 0 0 0
0 0 0 0 0 0 0 0 0 0 0 0 0 0 0 0 0 0 0 0 0 0 0 0 0 0 0 0 0 0 0 0 0 0 0 0 0 0
0 0 0 0 0 0 0 0 0 0 0 0 0 0 0 0 0 0 0 0 0 0 0 0 0 0 0 0 0 0 0 0 0 0 0 0 0 0
0 0 0 0 0 0 0 0 0 0 0 0 0 0 0 0 0 0 0 0 0 0 0 0 0 0 0 0 0 0 0 0 0 0 0 0 0 0
0 0 0 0 0 0 0 0 0 0 0 0 0 0 0 0 0 0 0 0 0 0 0 0 0 0 0 0 0 0 0 0 0 0 0 0 0 0
0 0 0 0 0 0 0 0 0 0 0 0 0 0 0 0 0 0 0 0 0 0 0 0 0 0 0 0 0 0 0 0 0 0 0 0 0 0
0 0 0 0 0 0 0 0 0 0 0 0 0 0 0 0 0 0 0 0 0 0 0 0 0 0 0 0 0 0 0 0 0 0 0 0 0 0
0 0 0 0 0 0 0 0 0 0 0 0 0 0 0 0 0 0 0 0 0 0 0 0 0 0 0 0 0 0 0 0 0 0 0 0 0 0
0 0 0 0 0 0 0 0 0 0 0 0 0 0 0 0 0 0 0 0 0 0 0 0 0 0 0 0 0 0 0 0 0 0 0 0 0 0
0 0 0 0 0 0 0 0 0 0 0 0 0 0 0 0 0 0 0 0 0 0 0 0 0 0 0 0 0 0 0 0 0 0 0 0 0 0
0 0 0 0 0 0 0 0 0 0 0 0 0 0 0 0 0 0 0 0 0 0 0 0 0 0 0 0 0 0 0 0 0 0 0 0 0 0
0 0 0 0 0 0 0 0 0 0 0 0 0 0 0 0 0 0 0 0 0 0 0 0 0 0 0 0 0 0 0 0 0 0 0 0 0 0
Height
5866 5865 5864 5863 5861 5860 5859 5857 5856 5854 5852 5849 5847 5844 5841 5839 5838 5837 5837 5836 5835 5834 5832 5830 5829 5828 5827 5827 5826 5826 5826 5825 5824 5823 5822 5820 5819 5818
5864 5863 5862 5860 5859 5858 5856 5854 5852 5851 5848 5846 5844 5841 5838 5836 5835 5834 5833 5832 5831 5829 5827 5825 5824 5822 5821 5821 5821 5821 5820 5819 5818 5817 5815 5814 5812 5811
5862 5860 5859 5858 5856 5855 5853 5851 5850 5848 5845 5844 5841 5839 5836 5834 5832 5831 5830 5829 5827 5825 5823 5821 5819 5817 5816 5816 5816 5815 5814 5813 5812 5811 5809 5808 5806 5805
5859 5858 5856 5855 5853 5852 5850 5848 5847 5844 5843 5840 5838 5836 5834 5832 5830 5829 5827 5825 5823 5822 5820 5817 5815 5814 5812 5812 5811 5810 5809 5807 5806 5804 5803 5801 5800 5798
5856 5855 5854 5852 5850 5849 5847 5845 5843 5841 5839 5837 5835 5833 5831 5829 5828 5826 5824 5822 5820 5818 5816 5814 5812 5810 5808 5807 5806 5804 5803 5801 5799 5797 5795 5793 5792 5790
5853 5852 5850 5849 5847 5845 5844 5842 5840 5838 5836 5834 5832 5830 5828 5826 5824 5822 5820 5818 5816 5813 5811 5809 5807 5805 5803 5801 5799 5798 5795 5793 5791 5789 5787 5785 5783 5782
5849 5848 5847 5845 5843 5842 5840 5838 5837 5835 5833 5831 5829 5827 5824 5822 5820 5818 5816 5813 5811 5808 5806 5803 5801 5799 5797 5794 5792 5790 5787 5785 5783 5781 5779 5776 5774 5772
5845 5844 5843 5842 5840 5838 5837 5835 5833 5831 5829 5827 5825 5823 5820 5818 5816 5813 5811 5808 5806 5803 5800 5797 5794 5792 5789 5787 5784 5781 5779 5777 5774 5772 5769 5767 5764 5762
5842 5841 5839 5837 5836 5835 5833 5831 5829 5827 5825 5823 5821 5818 5816 5813 5811 5808 5805 5802 5799 5796 5793 5790 5787 5784 5781 5778 5776 5773 5770 5767 5765 5762 5759 5756 5754 5751
5838 5836 5835 5833 5832 5830 5829 5827 5825 5823 5821 5819 5816 5813 5810 5807 5805 5802 5798 5795 5792 5789 5786 5783 5779 5776 5773 5770 5767 5764 5761 5758 5755 5752 5749 5746 5742 5739
5834 5832 5830 5829 5827 5826 5824 5822 5820 5818 5816 5813 5810 5807 5804 5801 5798 5795 5791 5788 5785 5781 5778 5774 5771 5767 5764 5760 5757 5754 5750 5747 5744 5740 5737 5734 5730 5727
5829 5828 5826 5824 5823 5821 5819 5817 5815 5813 5810 5807 5804 5801 5798 5794 5791 5787 5784 5780 5776 5773 5769 5765 5761 5758 5755 5751 5747 5743 5739 5736 5732 5728 5725 5721 5717 5714
5824 5823 5821 5819 5818 5816 5814 5811 5809 5806 5803 5801 5797 5794 5790 5787 5783 5779 5775 5771 5767 5763 5759 5755 5751 5747 5743 5740 5735 5731 5727 5724 5720 5716 5713 5709 5705 5702
5819 5818 5816 5814 5812 5810 5808 5806 5803 5800 5797 5794 5790 5787 5783 5779 5775 5770 5766 5762 5758 5753 5749 5745 5741 5736 5732 5728 5724 5720 5715 5711 5708 5704 5700 5697 5693 5689
5814 5812 5810 5808 5806 5804 5802 5799 5796 5793 5790 5787 5783 5779 5775 5770 5766 5762 5757 5753 5748 5743 5739 5734 5729 5725 5720 5716 5712 5707 5704 5699 5695 5691 5688 5684 5680 5676
5808 5806 5804 5802 5800 5798 5795 5792 5790 5786 5783 5779 5775 5771 5766 5762 5758 5753 5749 5744 5739 5734 5729 5723 5718 5714 5709 5704 5700 5695 5691 5687 5683 5678 5675 5671 5666 5662
5801 5800 5798 5795 5793 5791 5788 5785 5782 5779 5775 5771 5767 5763 5758 5754 5749 5744 5739 5734 5729 5724 5719 5714 5708 5703 5698 5693 5688 5683 5678 5674 5669 5665 5661 5657 5653 5649
5795 5793 5790 5788 5786 5783 5780 5777 5774 5771 5767 5763 5759 5754 5750 5745 5740 5736 5730 5725 5720 5714 5709 5703 5698 5692 5687 5682 5676 5671 5666 5661 5656 5652 5647 5644 5640 5636
5788 5785 5783 5781 5778 5775 5772 5769 5766 5763 5759 5754 5750 5746 5741 5736 5731 5726 5721 5715 5710 5704 5699 5693 5687 5681 5676 5671 5665 5658 5653 5648 5644 5639 5634 5630 5626 5622
5780 5778 5775 5773 5770 5767 5764 5761 5758 5754 5750 5746 5741 5737 5732 5727 5722 5716 5711 5705 5700 5694 5688 5682 5676 5669 5664 5658 5653 5647 5640 5635 5630 5626 5621 5616 5612 5608
5772 5770 5767 5765 5762 5759 5756 5752 5749 5745 5741 5737 5732 5727 5722 5717 5712 5706 5701 5695 5689 5683 5677 5671 5665 5658 5651 5646 5641 5635 5629 5622 5617 5612 5607 5603 5599 5594
5764 5761 5759 5756 5753 5750 5747 5743 5739 5736 5731 5727 5722 5717 5712 5707 5701 5696 5690 5684 5679 5672 5666 5660 5654 5647 5640 5634 5628 5623 5617 5611 5605 5599 5594 5589 5584 5579
5755 5753 5750 5747 5744 5741 5737 5733 5730 5726 5721 5717 5712 5707 5702 5696 5691 5685 5679 5673 5667 5661 5655 5648 5642 5635 5629 5622 5616 5611 5605 5599 5593 5587 5582 5576 5571 5566
Wind_Speed
10 10 10 10 10 10 11 11 11 11 12 12 13 14 14 14 14 14 14 14 15 16 17 17 18 18 19 19 20 20 20 20 21 22 23 24 24 25
10 10 11 11 12 12 12 12 12 12 13 13 14 14 13 13 13 13 14 14 15 16 17 17 17 18 18 19 19 20 21 21 22 23 23 23 24 24
11 11 12 12 12 12 13 12 13 13 14 14 13 13 13 13 14 14 14 15 16 17 17 17 17 18 18 19 19 20 21 22 23 24 24 24 25 26
11 12 12 13 13 13 13 13 13 13 14 14 14 14 14 14 14 15 15 16 16 17 17 18 18 18 19 20 20 22 23 24 25 26 26 27 28 28
12 12 12 13 13 14 14 14 14 15 15 15 14 14 14 15 15 15 16 17 18 19 19 19 19 20 21 22 23 23 24 25 26 26 27 28 29 30
13 13 13 14 14 14 14 14 15 15 15 15 15 15 15 16 16 17 18 19 20 21 21 21 21 22 23 24 25 26 27 28 29 29 29 30 30 31
13 13 14 14 14 14 14 14 15 15 16 16 17 17 17 18 18 19 20 21 22 22 23 23 23 25 26 27 28 29 30 31 31 31 32 32 33 34
13 14 14 14 14 14 14 15 15 16 17 17 18 19 20 20 21 22 23 23 24 25 25 26 27 28 28 29 30 31 31 32 33 33 35 36 36 36
14 14 14 14 14 14 15 15 16 16 17 18 19 20 21 22 23 24 25 25 26 26 27 28 29 30 30 30 31 31 32 33 34 35 36 36 37 38
15 15 15 14 15 16 17 17 18 18 19 20 21 22 23 24 25 26 26 27 28 29 30 30 30 31 32 32 33 34 34 35 35 36 37 38 39 39
15 15 16 16 16 17 18 19 19 20 21 22 23 24 26 27 27 28 29 29 30 29 30 31 31 32 33 34 35 36 37 37 38 39 39 40 40 40
16 16 16 17 18 18 19 20 21 22 23 24 25 27 27 28 29 30 31 31 31 31 31 32 33 34 35 35 36 37 38 38 39 40 40 40 40 40
17 17 18 18 19 20 21 22 23 23 24 26 27 28 29 30 31 32 33 33 34 34 34 35 36 37 38 38 38 39 39 39 39 40 40 40 40 40
18 18 19 19 20 21 22 23 23 25 26 27 28 29 30 31 31 32 32 33 35 35 36 38 39 39 39 40 39 39 39 40 40 41 41 41 41 41
19 19 20 21 22 23 24 24 25 26 27 28 30 31 31 31 32 33 33 34 35 36 37 39 40 40 39 39 39 40 40 40 41 41 41 41 42 43
21 21 22 23 24 24 25 25 26 27 28 29 30 31 32 32 33 34 35 36 37 38 39 40 41 40 40 40 41 41 41 42 42 42 42 42 42 42
22 23 24 24 25 25 26 27 27 28 29 31 31 32 33 34 34 36 37 38 39 40 40 41 41 41 42 42 43 43 43 43 43 43 42 42 42 43
24 24 25 25 26 26 27 28 29 30 31 32 32 33 34 35 36 37 38 39 40 40 41 42 42 42 42 43 44 44 43 43 43 43 43 43 43 43
26 26 27 27 28 28 28 29 30 31 32 32 33 34 36 37 38 39 40 40 40 40 41 42 43 43 43 42 42 43 44 44 44 44 44 44 44 44
27 28 28 29 29 29 30 31 31 32 33 34 35 36 37 39 40 41 41 40 41 41 42 42 43 44 44 44 44 44 45 45 45 45 45 45 45 45
28 29 29 30 30 31 32 33 33 34 35 36 37 38 39 40 41 41 41 42 42 43 43 43 43 44 45 45 45 44 45 45 44 45 45 45 44 45
28 29 29 30 31 32 33 34 35 36 37 38 39 39 40 41 41 41 42 43 43 44 44 44 44 43 44 44 44 44 44 44 44 44 45 45 46 45
29 30 31 32 33 33 34 35 36 37 37 38 39 40 41 41 42 42 43 43 44 44 44 44 44 44 43 43 44 44 44 44 44 44 44 44 45 45
Wind_Direction
292 294 295 297 297 300 301 303 305 305 304 305 305 305 304 301 296 293 293 291 290 291 291 288 283 280 278 276 277 276 276 276 276 278 278 278 276 273
290 292 296 297 294 296 299 302 305 307 307 307 307 307 305 303 300 295 294 294 296 296 292 289 286 282 279 278 277 277 278 279 281 282 281 279 278 275
290 293 296 298 298 299 300 300 302 304 304 304 304 304 304 301 300 297 295 294 296 295 293 290 287 283 281 279 278 280 280 281 282 282 282 280 280 280
292 294 298 299 298 299 301 301 301 303 302 302 302 302 302 300 298 297 296 298 297 294 292 290 287 284 282 280 280 282 282 283 283 283 283 281 281 280
291 294 297 298 299 302 302 301 302 302 302 301 301 299 299 297 297 298 297 296 295 294 292 290 288 286 285 284 284 283 284 284 284 284 284 284 283 280
290 292 295 297 300 301 301 301 304 304 303 303 303 302 298 296 297 298 297 296 296 295 293 291 288 287 286 285 286 286 285 285 286 285 285 284 283 282
287 291 294 297 300 301 302 302 304 304 303 304 304 304 302 300 301 302 300 299 298 296 295 292 291 290 289 288 288 288 287 287 286 286 285 285 285 285
291 290 294 296 299 301 302 303 304 304 302 303 304 304 303 301 301 301 301 300 298 297 296 294 293 292 291 292 290 290 289 288 288 288 287 287 287 287
291 294 297 296 295 299 302 303 305 306 304 305 305 305 305 303 302 302 301 300 299 298 297 296 295 293 292 292 291 291 291 290 289 289 290 290 289 288
291 292 294 295 295 295 297 299 301 303 304 305 305 305 304 304 304 303 302 302 300 298 297 296 296 294 293 292 291 291 291 291 291 291 291 291 290 289
291 291 293 292 295 296 295 296 298 301 303 304 305 305 304 303 303 302 301 301 301 298 296 296 296 295 294 293 292 292 292 292 291 291 291 291 290 289
290 291 293 292 292 294 296 297 298 299 301 302 303 304 303 303 303 302 301 301 300 299 298 297 298 297 296 294 294 293 292 292 292 292 292 291 290 289
290 291 292 293 293 294 295 298 298 298 299 301 302 303 303 303 303 302 301 301 300 299 299 299 300 299 298 297 295 294 293 292 292 293 293 292 291 291
290 291 293 293 294 295 296 298 299 300 301 303 304 304 304 305 304 304 302 301 301 300 300 300 301 301 299 297 296 295 294 293 293 293 293 292 292 292
289 291 293 294 294 295 296 298 299 301 304 305 305 306 307 306 306 305 304 303 303 302 301 301 302 301 301 301 298 296 294 294 294 293 292 292 292 292
287 289 291 294 294 295 296 298 300 302 304 306 308 308 309 308 308 307 307 306 305 304 303 303 303 302 303 302 300 299 296 296 296 294 293 293 293 293
287 288 291 294 295 295 297 299 301 303 305 306 307 308 309 308 308 308 308 308 306 305 304 304 303 303 303 302 301 300 298 297 297 296 294 294 293 293
291 291 292 294 296 296 297 300 302 304 305 306 307 308 309 309 308 307 307 308 308 306 305 305 304 303 302 302 301 299 299 298 298 298 296 295 294 294
291 292 292 293 296 296 297 299 301 303 305 305 306 307 308 309 309 308 308 307 307 307 307 307 305 304 304 303 302 301 300 300 299 298 297 296 295 295
290 292 292 293 295 297 297 299 301 302 304 305 307 308 309 309 309 309 309 307 307 307 307 308 307 306 306 305 304 303 302 301 299 299 298 297 297 296
290 292 292 293 294 297 298 298 299 301 302 304 306 307 309 309 309 308 308 308 308 307 307 307 309 309 308 306 305 304 303 302 301 300 299 299 298 298
291 292 293 294 296 297 298 298 299 301 302 303 305 306 307 308 308 307 307 308 308 308 308 307 307 308 307 307 306 306 305 304 303 302 301 300 300 300
290 293 294 295 296 297 298 299 299 300 302 304 305 306 307 308 308 308 308 308 309 309 309 309 308 308 308 308 307 307 306 305 304 303 302 301 301 300